CW9792 Weather Reports


time (UTC)temp
F
wind
direction
speed
knots
gust
knots
rain 1hr
in
rain 24hr
in
rain mn
in
humidity
%
barometer
mb
20260901055024 73 194 0.0 0.0 0.00 0.00 0.00 63 1017.1
20260901054523 73 193 0.0 0.0 0.00 0.00 0.00 63 1017.2
20260901054024 73 193 0.0 0.0 0.00 0.00 0.00 63 1017.2
20260901053524 73 184 0.0 0.0 0.00 0.00 0.00 62 1017.3
20260901053022 73 184 0.0 0.0 0.00 0.00 0.00 62 1017.3
20260901052520 73 184 0.0 0.0 0.00 0.00 0.00 62 1017.3
20260901052019 74 184 0.0 0.0 0.00 0.00 0.00 62 1017.3
20260901051519 74 184 0.0 0.0 0.00 0.00 0.00 61 1017.3
20260901051019 74 184 0.0 0.0 0.00 0.00 0.00 61 1017.2
20260901050519 75 184 0.0 0.0 0.00 0.00 0.00 61 1017.2
20260901050019 75 184 0.0 0.0 0.00 0.00 0.00 61 1017.2
20260901045518 75 183 0.0 0.0 0.00 0.00 0.00 61 1017.2
20260901045018 75 178 0.0 0.0 0.00 0.00 0.00 61 1017.1
20260901044518 75 183 0.0 0.0 0.00 0.00 0.00 61 1017.1
20260901044017 75 200 0.0 0.0 0.00 0.00 0.00 62 1017.1
20260901043517 74 202 0.0 0.0 0.00 0.00 0.00 62 1017.2
20260901043016 74 202 0.0 0.0 0.00 0.00 0.00 62 1017.2
20260901042517 74 202 0.0 0.0 0.00 0.00 0.00 63 1017.2
20260901042015 74 202 0.0 0.0 0.00 0.00 0.00 63 1017.1
20260901041515 74 202 0.0 0.0 0.00 0.00 0.00 63 1017.1
20260901041014 74 202 0.0 0.0 0.00 0.00 0.00 63 1017.1
20260901040514 74 202 0.0 0.0 0.00 0.00 0.00 63 1017.1
20260901040013 74 202 0.0 0.0 0.00 0.00 0.00 63 1017.1
20260901035513 74 202 0.0 0.0 0.00 0.00 0.00 63 1017.0
20260901035011 74 202 0.0 0.0 0.00 0.00 0.00 63 1017.0
20260901034521 74 202 0.0 0.0 0.00 0.00 0.00 63 1017.0
20260901034011 75 202 0.0 0.0 0.00 0.00 0.00 63 1017.0
20260901033511 75 202 0.0 0.0 0.00 0.00 0.00 63 1017.0
20260901033011 75 202 0.0 0.0 0.00 0.00 0.00 63 1017.0
20260901032511 75 202 0.0 0.0 0.00 0.00 0.00 63 1016.9
20260901032011 75 202 0.0 0.0 0.00 0.00 0.00 63 1016.9
20260901031510 75 202 0.0 0.0 0.00 0.00 0.00 63 1016.8
20260901031010 75 202 0.0 0.0 0.00 0.00 0.00 63 1016.8
20260901030510 75 202 0.0 0.0 0.00 0.00 0.00 63 1016.8
20260901030010 75 202 0.0 0.0 0.00 0.00 0.00 63 1016.8
20260901025511 76 202 0.0 0.0 0.00 0.00 0.00 63 1016.8
20260901025012 76 202 0.0 0.0 0.00 0.00 0.00 62 1016.8
20260901024510 76 202 0.0 0.0 0.00 0.00 0.00 62 1016.8
20260901024009 76 202 0.0 0.0 0.00 0.00 0.00 62 1016.8
20260901023509 76 202 0.0 0.0 0.00 0.00 0.00 62 1016.8
20260901023014 76 203 0.0 0.0 0.00 0.00 0.00 62 1016.7
20260901022510 76 204 0.0 0.0 0.00 0.00 0.00 62 1016.7
20260901022008 76 203 0.0 0.0 0.00 0.00 0.00 63 1016.7
20260901021511 76 203 0.0 0.0 0.00 0.00 0.00 63 1016.7
20260901021009 76 205 0.0 0.0 0.00 0.00 0.00 63 1016.7
20260901020509 76 205 0.0 0.0 0.00 0.00 0.00 63 1016.7
20260901020008 76 205 0.0 0.0 0.00 0.00 0.00 63 1016.7
20260901015509 76 205 0.0 0.0 0.00 0.00 0.00 63 1016.7
20260901015007 77 205 0.0 0.0 0.00 0.00 0.00 63 1016.7
20260901014507 77 205 0.0 0.0 0.00 0.00 0.00 63 1016.7
20260901014010 77 205 0.0 0.0 0.00 0.00 0.00 62 1016.6
20260901013509 78 205 0.0 0.0 0.00 0.00 0.00 62 1016.6
20260901013007 78 205 0.0 0.0 0.00 0.00 0.00 62 1016.6
20260901012506 78 205 0.0 0.0 0.00 0.00 0.00 62 1016.4
20260901012006 78 205 0.0 0.0 0.00 0.00 0.00 61 1016.4
20260901011517 79 205 0.0 0.0 0.00 0.00 0.00 60 1016.4
20260901011006 80 214 0.0 0.0 0.00 0.00 0.00 60 1016.3
20260901010506 81 221 0.0 0.0 0.00 0.00 0.00 58 1016.2
20260901010006 81 221 0.0 0.0 0.00 0.00 0.00 58 1016.2
20260901005506 81 221 0.0 0.0 0.00 0.00 0.00 57 1016.1
20260901005008 82 221 0.0 0.0 0.00 0.00 0.00 57 1016.1
20260901004506 83 221 0.0 0.0 0.00 0.00 0.00 57 1016.0
20260901004005 83 221 0.0 0.0 0.00 0.00 0.00 56 1016.0
20260901003505 84 221 0.0 0.0 0.00 0.00 0.00 55 1015.9
20260901003005 84 221 0.0 0.0 0.00 0.00 0.00 54 1016.0
20260901002505 85 221 0.0 0.0 0.00 0.00 0.00 53 1015.9
20260901002005 86 221 0.0 0.0 0.00 0.00 0.00 51 1015.8
20260901001504 87 221 0.0 0.0 0.00 0.00 0.00 50 1015.9
20260901001005 87 221 0.0 0.0 0.00 0.00 0.00 51 1015.9
20260901000503 87 221 0.0 0.0 0.00 0.00 0.00 51 1015.8
20260901000004 88 221 0.0 0.0 0.00 0.00 0.00 50 1015.8
20260831235503 89 221 0.0 0.0 0.00 0.00 0.00 48 1015.7
20260831235004 89 221 0.0 0.0 0.00 0.00 0.00 47 1015.7
20260831234503 90 221 0.0 0.0 0.00 0.00 0.00 47 1015.7
20260831234003 90 221 0.0 0.0 0.00 0.00 0.00 46 1015.8
20260831233501 90 221 0.0 0.0 0.00 0.00 0.00 45 1015.8
20260831233002 91 221 0.0 0.0 0.00 0.00 0.00 42 1015.8
20260831232501 91 221 0.0 0.0 0.00 0.00 0.00 42 1015.8
20260831232102 91 221 0.0 0.0 0.00 0.00 0.00 42 1016.0
20260831231601 91 221 0.0 0.0 0.00 0.00 0.00 41 1015.9
20260831231100 91 221 0.0 0.0 0.00 0.00 0.00 39 1016.0
20260831230600 92 221 0.0 0.0 0.00 0.00 0.00 39 1016.0
20260831230112 91 221 0.0 0.0 0.00 0.00 0.00 39 1016.1
20260831225602 92 218 0.0 0.0 0.00 0.00 0.00 39 1016.1
20260831225059 92 212 0.0 0.0 0.00 0.00 0.00 38 1016.1
20260831224558 92 212 0.0 0.0 0.00 0.00 0.00 39 1016.1
20260831224058 92 227 0.0 0.0 0.00 0.00 0.00 37 1016.1
20260831223600 93 200 0.0 0.0 0.00 0.00 0.00 37 1016.2
20260831223057 93 190 0.0 0.0 0.00 0.00 0.00 37 1016.3
20260831222556 93 173 0.0 0.0 0.00 0.00 0.00 36 1016.4
20260831222055 93 202 0.0 0.0 0.00 0.00 0.00 37 1016.4
20260831221602 92 201 0.0 0.0 0.00 0.00 0.00 37 1016.5
20260831221054 92 200 0.0 0.0 0.00 0.00 0.00 37 1016.6
20260831220553 92 194 0.0 0.0 0.00 0.00 0.00 37 1016.6
20260831215556 92 210 0.0 0.0 0.00 0.00 0.00 38 1016.8
20260831215053 92 219 0.0 0.0 0.00 0.00 0.00 36 1016.7
20260831214553 93 186 0.0 0.0 0.00 0.00 0.00 38 1016.7
20260831214052 93 188 0.0 0.0 0.00 0.00 0.00 38 1016.8
20260831213551 93 213 0.0 0.0 0.00 0.00 0.00 37 1016.8
20260831213056 93 192 0.0 0.0 0.00 0.00 0.00 38 1016.8
20260831212551 93 168 0.0 0.0 0.00 0.00 0.00 38 1016.9
20260831212054 93 196 0.0 0.0 0.00 0.00 0.00 37 1016.9
20260831211601 93 188 0.0 0.0 0.00 0.00 0.00 37 1016.9
20260831211051 93 203 0.0 0.0 0.00 0.00 0.00 37 1016.9
20260831210550 93 190 0.0 0.0 0.00 0.00 0.00 37 1017.0
20260831210049 93 199 0.0 0.9 0.00 0.00 0.00 37 1017.0
20260831205550 94 189 0.0 0.9 0.00 0.00 0.00 36 1017.0
20260831205050 93 194 0.0 0.0 0.00 0.00 0.00 38 1017.0
20260831204554 93 276 0.0 0.0 0.00 0.00 0.00 39 1017.0
20260831204050 93 332 0.0 0.0 0.00 0.00 0.00 37 1017.0
20260831203550 94 281 0.0 0.9 0.00 0.00 0.00 37 1017.1
20260831203047 93 187 0.0 0.9 0.00 0.00 0.00 38 1017.2
20260831202549 93 225 0.0 0.0 0.00 0.00 0.00 39 1017.2
20260831202048 92 246 0.0 0.0 0.00 0.00 0.00 38 1017.2
20260831201546 92 265 0.0 0.0 0.00 0.00 0.00 39 1017.3
20260831201049 93 208 0.0 0.0 0.00 0.00 0.00 38 1017.4
20260831200547 93 197 0.0 0.0 0.00 0.00 0.00 39 1017.3
20260831200053 93 161 0.0 0.0 0.00 0.00 0.00 39 1017.3
20260831195545 92 248 0.0 0.0 0.00 0.00 0.00 41 1017.4
20260831195047 91 248 0.0 0.0 0.00 0.00 0.00 41 1017.5
20260831194545 92 185 0.0 0.0 0.00 0.00 0.00 41 1017.6
20260831194045 91 178 0.0 0.0 0.00 0.00 0.00 41 1017.6
20260831193545 92 210 0.0 0.0 0.00 0.00 0.00 40 1017.6
20260831193046 92 214 0.0 0.0 0.00 0.00 0.00 39 1017.7
20260831192544 92 271 0.0 0.0 0.00 0.00 0.00 40 1017.7
20260831192048 93 234 0.0 0.9 0.00 0.00 0.00 38 1017.8
20260831191543 92 211 0.0 0.9 0.00 0.00 0.00 41 1017.8
20260831191043 91 301 0.0 0.0 0.00 0.00 0.00 40 1017.8
20260831190543 92 287 0.0 0.0 0.00 0.00 0.00 39 1017.9
20260831185543 92 247 0.0 0.9 0.00 0.00 0.00 41 1017.9
20260831185041 91 290 0.0 0.9 0.00 0.00 0.00 42 1018.0
20260831184541 92 224 0.0 0.9 0.00 0.00 0.00 41 1018.0
20260831184041 91 252 0.0 0.0 0.00 0.00 0.00 42 1018.1
20260831183541 91 197 0.0 0.0 0.00 0.00 0.00 42 1018.2
20260831183041 91 200 0.0 0.0 0.00 0.00 0.00 41 1018.3
20260831182541 91 223 0.0 0.0 0.00 0.00 0.00 41 1018.2
20260831182041 91 246 0.0 0.9 0.00 0.00 0.00 41 1018.3
20260831181539 92 255 0.0 0.9 0.00 0.00 0.00 43 1018.4
20260831181039 91 190 0.0 0.0 0.00 0.00 0.00 42 1018.5
20260831180537 90 252 0.0 0.0 0.00 0.00 0.00 44 1018.5
20260831180045 90 244 0.0 0.0 0.00 0.00 0.00 45 1018.5
20260831175537 90 283 0.0 0.0 0.00 0.00 0.00 44 1018.5
20260831175037 90 229 0.0 0.0 0.00 0.00 0.00 46 1018.6
20260831174540 90 200 0.0 0.0 0.00 0.00 0.00 45 1018.6
20260831174035 89 278 0.0 0.0 0.00 0.00 0.00 46 1018.6
20260831173534 89 229 0.0 0.0 0.00 0.00 0.00 46 1018.7
20260831173033 89 250 0.0 0.0 0.00 0.00 0.00 47 1018.6
20260831172534 89 252 0.0 0.0 0.00 0.00 0.00 47 1018.7
20260831172032 88 234 0.0 0.0 0.00 0.00 0.00 47 1018.8
20260831171532 89 234 0.0 0.0 0.00 0.00 0.00 47 1018.8
20260831171033 89 250 0.0 0.0 0.00 0.00 0.00 47 1018.9
20260831170533 89 236 0.0 0.0 0.00 0.00 0.00 47 1018.9
20260831170032 89 238 0.0 0.0 0.00 0.00 0.00 48 1018.9
20260831165535 89 225 0.0 0.9 0.00 0.00 0.00 48 1019.0
20260831165030 88 230 0.0 0.0 0.00 0.00 0.00 50 1019.0
20260831164540 88 242 0.0 0.0 0.00 0.00 0.00 49 1019.1
20260831164029 88 243 0.0 0.0 0.00 0.00 0.00 48 1019.2
20260831163529 88 230 0.0 0.0 0.00 0.00 0.00 49 1019.3
20260831163028 88 206 0.0 0.0 0.00 0.00 0.00 49 1019.3
20260831162530 88 213 0.0 0.0 0.00 0.00 0.00 49 1019.3
20260831162026 87 261 0.0 0.0 0.00 0.00 0.00 50 1019.3
20260831161526 88 254 0.0 0.0 0.00 0.00 0.00 50 1019.3
20260831161024 87 253 0.0 0.0 0.00 0.00 0.00 51 1019.3
20260831160523 87 257 0.0 0.0 0.00 0.00 0.00 50 1019.3
20260831160023 86 252 0.0 0.0 0.00 0.00 0.00 50 1019.4
20260831155522 86 246 0.0 0.0 0.00 0.00 0.00 50 1019.4
20260831155023 86 249 0.0 0.0 0.00 0.00 0.00 50 1019.4
20260831154523 86 252 0.0 0.0 0.00 0.00 0.00 49 1019.4
20260831154025 86 225 0.0 0.0 0.00 0.00 0.00 50 1019.5
20260831153521 86 231 0.0 0.0 0.00 0.00 0.00 49 1019.4
20260831153020 86 213 0.0 0.0 0.00 0.00 0.00 50 1019.4
20260831152523 86 250 0.0 0.0 0.00 0.00 0.00 53 1019.3
20260831152018 86 244 0.0 0.0 0.00 0.00 0.00 52 1019.2
20260831151517 85 234 0.0 0.0 0.00 0.00 0.00 53 1019.3
20260831151016 85 216 0.0 0.0 0.00 0.00 0.00 53 1019.3
20260831150516 85 267 0.0 0.0 0.00 0.00 0.00 54 1019.3
20260831150016 85 259 0.0 0.0 0.00 0.00 0.00 53 1019.2
20260831145516 84 225 0.0 0.0 0.00 0.00 0.00 53 1019.3
20260831145014 84 227 0.0 0.0 0.00 0.00 0.00 54 1019.2
20260831144516 84 229 0.0 0.0 0.00 0.00 0.00 54 1019.2
20260831144013 84 257 0.0 0.0 0.00 0.00 0.00 54 1019.2
20260831143512 84 235 0.0 0.0 0.00 0.00 0.00 54 1019.2
20260831143019 83 257 0.0 0.0 0.00 0.00 0.00 54 1019.3
20260831142512 83 236 0.0 0.0 0.00 0.00 0.00 55 1019.2
20260831142009 83 271 0.0 0.0 0.00 0.00 0.00 55 1019.2
20260831141509 83 235 0.0 0.0 0.00 0.00 0.00 55 1019.1
20260831141007 82 218 0.0 0.0 0.00 0.00 0.00 56 1019.1
20260831140506 82 240 0.0 0.0 0.00 0.00 0.00 56 1019.0
20260831140005 81 212 0.0 0.0 0.00 0.00 0.00 56 1019.0
20260831135505 81 177 0.0 0.0 0.00 0.00 0.00 56 1019.0
20260831135003 80 198 0.0 0.0 0.00 0.00 0.00 56 1019.1
20260831134502 80 172 0.0 0.0 0.00 0.00 0.00 57 1019.1
20260831134100 79 205 0.0 0.0 0.00 0.00 0.00 58 1019.1
20260831133559 79 235 0.0 0.0 0.00 0.00 0.00 58 1019.1
20260831133058 78 215 0.0 0.0 0.00 0.00 0.00 59 1019.1
20260831132557 78 186 0.0 0.0 0.00 0.00 0.00 59 1019.0
20260831132056 77 180 0.0 0.0 0.00 0.00 0.00 60 1019.0
20260831131600 77 161 0.0 0.0 0.00 0.00 0.00 60 1019.0
20260831131053 77 178 0.0 0.0 0.00 0.00 0.00 60 1019.0
20260831130552 76 178 0.0 0.0 0.00 0.00 0.00 61 1018.9
20260831130053 76 169 0.0 0.0 0.00 0.00 0.00 61 1018.8
20260831125550 76 174 0.0 0.0 0.00 0.00 0.00 62 1018.8
20260831125052 75 166 0.0 0.0 0.00 0.00 0.00 62 1018.8
20260831124549 75 174 0.0 0.0 0.00 0.00 0.00 63 1018.8
20260831124049 74 178 0.0 0.0 0.00 0.00 0.00 63 1018.8
20260831123546 74 179 0.0 0.0 0.00 0.00 0.00 64 1018.7
20260831123046 73 179 0.0 0.0 0.00 0.00 0.00 64 1018.7
20260831122546 73 180 0.0 0.0 0.00 0.00 0.00 64 1018.6
20260831122046 73 179 0.0 0.0 0.00 0.00 0.00 64 1018.6
20260831121544 73 180 0.0 0.0 0.00 0.00 0.00 65 1018.5
20260831121044 72 180 0.0 0.0 0.00 0.00 0.00 65 1018.5
20260831120543 72 178 0.0 0.0 0.00 0.00 0.00 65 1018.4
20260831120044 72 178 0.0 0.0 0.00 0.00 0.00 65 1018.3
20260831115543 71 178 0.0 0.0 0.00 0.00 0.00 65 1018.4
20260831115043 71 181 0.0 0.0 0.00 0.00 0.00 65 1018.4
20260831114542 71 179 0.0 0.0 0.00 0.00 0.00 65 1018.3
20260831114042 71 179 0.0 0.0 0.00 0.00 0.00 65 1018.2
20260831113542 71 177 0.0 0.0 0.00 0.00 0.00 66 1018.2
20260831113041 71 177 0.0 0.0 0.00 0.00 0.00 66 1018.1
20260831112543 71 177 0.0 0.0 0.00 0.00 0.00 66 1018.1
20260831112039 71 177 0.0 0.0 0.00 0.00 0.00 66 1018.0
20260831111551 71 179 0.0 0.0 0.00 0.00 0.00 65 1017.9
20260831111038 71 179 0.0 0.0 0.00 0.00 0.00 65 1018.0
20260831110538 71 179 0.0 0.0 0.00 0.00 0.00 65 1017.8
20260831110046 71 179 0.0 0.0 0.00 0.00 0.00 65 1017.7
20260831105536 71 180 0.0 0.0 0.00 0.00 0.00 65 1017.7
20260831105036 71 181 0.0 0.0 0.00 0.00 0.00 65 1017.6
20260831104635 71 181 0.0 0.0 0.00 0.00 0.00 65 1017.5
20260831104036 71 181 0.0 0.0 0.00 0.00 0.00 65 1017.5
20260831103535 71 183 0.0 0.0 0.00 0.00 0.00 65 1017.5
20260831103038 71 178 0.0 0.0 0.00 0.00 0.00 65 1017.5
20260831102535 71 178 0.0 0.0 0.00 0.00 0.00 65 1017.5
20260831102034 71 178 0.0 0.0 0.00 0.00 0.00 65 1017.4
20260831101536 71 178 0.0 0.0 0.00 0.00 0.00 65 1017.3
20260831101034 71 178 0.0 0.0 0.00 0.00 0.00 65 1017.3
20260831100537 71 178 0.0 0.0 0.00 0.00 0.00 65 1017.3
20260831100035 71 178 0.0 0.0 0.00 0.00 0.00 65 1017.3
20260831095533 71 177 0.0 0.0 0.00 0.00 0.00 65 1017.1
20260831095035 71 183 0.0 0.0 0.00 0.00 0.00 65 1017.1
20260831094534 71 189 0.0 0.0 0.00 0.00 0.00 65 1017.2
20260831094033 71 185 0.0 0.0 0.00 0.00 0.00 65 1017.2
20260831093533 71 192 0.0 0.0 0.00 0.00 0.00 65 1017.2
20260831093044 71 191 0.0 0.0 0.00 0.00 0.00 65 1017.3
20260831092532 71 185 0.0 0.0 0.00 0.00 0.00 65 1017.3
20260831092033 70 185 0.0 0.0 0.00 0.00 0.00 65 1017.3
20260831091532 70 185 0.0 0.0 0.00 0.00 0.00 65 1017.2
20260831091033 70 185 0.0 0.0 0.00 0.00 0.00 65 1017.3
20260831090531 70 186 0.0 0.0 0.00 0.00 0.00 65 1017.3
20260831090038 70 186 0.0 0.0 0.00 0.00 0.00 65 1017.3
20260831085534 71 186 0.0 0.0 0.00 0.00 0.00 65 1017.3
20260831085131 70 186 0.0 0.0 0.00 0.00 0.00 65 1017.3
20260831084532 71 186 0.0 0.0 0.00 0.00 0.00 64 1017.3
20260831084029 71 186 0.0 0.0 0.00 0.00 0.00 64 1017.1
20260831083529 71 186 0.0 0.0 0.00 0.00 0.00 64 1017.1
20260831083028 71 186 0.0 0.0 0.00 0.00 0.00 64 1017.1
20260831082527 71 186 0.0 0.0 0.00 0.00 0.00 64 1017.0
20260831082030 71 186 0.0 0.0 0.00 0.00 0.00 63 1017.0
20260831081524 72 171 0.0 0.0 0.00 0.00 0.00 63 1017.0
20260831081027 72 188 0.0 0.0 0.00 0.00 0.00 63 1016.9
20260831080526 72 187 0.0 0.0 0.00 0.00 0.00 63 1016.9
20260831080026 72 194 0.0 0.0 0.00 0.00 0.00 63 1016.9
20260831075525 73 194 0.0 0.0 0.00 0.00 0.00 63 1016.9
20260831075024 73 194 0.0 0.0 0.00 0.00 0.00 62 1016.9
20260831074524 73 200 0.0 0.0 0.00 0.00 0.00 62 1016.9
20260831074025 73 200 0.0 0.0 0.00 0.00 0.00 62 1016.9
20260831073524 73 200 0.0 0.0 0.00 0.00 0.00 62 1016.9
20260831073024 73 199 0.0 0.0 0.00 0.00 0.00 63 1016.9
20260831072526 73 213 0.0 0.0 0.00 0.00 0.00 63 1017.0
20260831072022 73 201 0.0 0.0 0.00 0.00 0.00 63 1017.0
20260831071528 72 196 0.0 0.0 0.00 0.00 0.00 63 1017.1
20260831071021 72 194 0.0 0.0 0.00 0.00 0.00 63 1017.1
20260831070522 72 187 0.0 0.0 0.00 0.00 0.00 63 1017.1
20260831070024 72 200 0.0 0.0 0.00 0.00 0.00 62 1017.2
20260831065526 72 200 0.0 0.0 0.00 0.00 0.00 62 1017.1
20260831065018 73 200 0.0 0.0 0.00 0.00 0.00 62 1017.1
20260831064519 73 200 0.0 0.0 0.00 0.00 0.00 62 1017.1
20260831064018 73 202 0.0 0.0 0.00 0.00 0.00 62 1017.2
20260831063518 73 202 0.0 0.0 0.00 0.00 0.00 61 1017.2
20260831063019 73 205 0.0 0.0 0.00 0.00 0.00 61 1017.2
20260831062518 73 205 0.0 0.0 0.00 0.00 0.00 61 1017.3
20260831062021 73 205 0.0 0.0 0.00 0.00 0.00 61 1017.3
20260831061518 73 204 0.0 0.0 0.00 0.00 0.00 62 1017.3
20260831061017 73 204 0.0 0.0 0.00 0.00 0.00 61 1017.3
20260831060518 73 204 0.0 0.0 0.00 0.00 0.00 61 1017.3
20260831060017 73 205 0.0 0.0 0.00 0.00 0.00 61 1017.3
20260831055517 73 205 0.0 0.0 0.00 0.00 0.00 61 1017.3